GW1942 Weather Reports


time (UTC)temp
F
wind
direction
speed
knots
gust
knots
rain 1hr
in
rain 24hr
in
rain mn
in
humidity
%
barometer
mb
20260510234510 77 150 3.5 9.6 0.00 0.00 0.00 23 1011.0
20260510233010 77 139 1.7 6.1 0.00 0.00 0.00 23 1010.8
20260510231510 77 167 3.5 8.7 0.00 0.00 0.00 23 1010.8
20260510230007 77 196 5.2 11.3 0.00 0.00 0.00 25 1010.8
20260510224504 76 202 4.3 9.6 0.00 0.00 0.00 23 1011.1
20260510223003 75 153 3.5 7.0 0.00 0.00 0.00 26 1011.2
20260510221502 76 192 5.2 10.4 0.00 0.00 0.00 27 1011.4
20260510220105 76 199 0.9 3.5 0.00 0.00 0.00 33 1011.4
20260510214601 75 281 0.0 2.6 0.00 0.00 0.00 34 1011.8
20260510213054 74 341 0.0 1.7 0.00 0.00 0.00 35 1011.8
20260510211550 73 281 0.9 2.6 0.00 0.00 0.00 38 1012.1
20260510210052 73 335 0.9 3.5 0.00 0.00 0.00 37 1012.1
20260510204555 73 275 0.0 2.6 0.00 0.00 0.00 35 1012.3
20260510203047 72 307 0.0 2.6 0.00 0.00 0.00 37 1012.3
20260510201549 72 284 0.9 3.5 0.00 0.00 0.00 39 1012.4
20260510200045 72 299 0.9 3.5 0.00 0.00 0.00 38 1012.5
20260510194544 73 250 0.0 1.7 0.00 0.00 0.00 36 1012.8
20260510193043 72 321 0.9 2.6 0.00 0.00 0.00 38 1013.1
20260510191536 71 295 0.9 3.5 0.00 0.00 0.00 41 1013.3
20260510190036 70 6 0.0 1.7 0.00 0.00 0.00 41 1013.7
20260510184529 68 11 0.0 3.5 0.00 0.00 0.00 42 1014.0
20260510183026 67 283 0.9 2.6 0.00 0.00 0.00 43 1014.4
20260510181522 65 284 0.9 3.5 0.00 0.00 0.00 44 1014.7
20260510180024 65 293 0.9 3.5 0.00 0.00 0.00 44 1014.8
20260510174517 65 328 0.0 1.7 0.00 0.00 0.00 46 1015.1
20260510173014 64 264 0.0 2.6 0.00 0.00 0.00 46 1015.2
20260510171511 62 143 0.0 1.7 0.00 0.00 0.00 48 1015.6
20260510170009 62 238 0.0 2.6 0.00 0.00 0.00 49 1015.6
20260510164516 61 51 0.0 2.6 0.00 0.00 0.00 49 1016.1
20260510163101 59 304 0.0 1.7 0.00 0.00 0.00 52 1016.1
20260510161605 57 286 0.0 1.7 0.00 0.00 0.00 53 1016.4
20260510160055 57 279 0.9 2.6 0.00 0.00 0.00 55 1016.8
20260510154557 56 276 0.0 1.7 0.00 0.00 0.00 59 1017.0
20260510153053 55 297 0.0 0.9 0.00 0.00 0.00 62 1017.1
20260510151548 55 158 0.0 0.9 0.00 0.00 0.00 62 1017.2
20260510150104 52 100 0.0 1.7 0.00 0.00 0.00 65 1017.4
20260510144542 51 60 0.0 0.9 0.00 0.00 0.00 66 1017.3
20260510143039 50 123 0.0 0.9 0.00 0.00 0.00 72 1017.3
20260510141537 49 141 0.0 0.0 0.00 0.00 0.00 75 1017.2
20260510140035 46 200 0.0 0.0 0.00 0.00 0.00 78 1017.4
20260510134533 44 206 0.0 0.9 0.00 0.00 0.00 82 1017.3
20260510133033 42 213 0.9 2.6 0.00 0.00 0.00 85 1017.5
20260510131532 40 226 0.0 0.9 0.00 0.00 0.00 88 1017.5
20260510130032 39 246 0.0 0.0 0.00 0.00 0.00 89 1017.7
20260510124530 39 237 0.0 0.0 0.00 0.00 0.00 88 1017.8
20260510123030 37 124 0.0 0.0 0.00 0.00 0.00 90 1017.7
20260510121529 37 119 0.0 0.9 0.00 0.00 0.00 89 1017.6
20260510120029 38 160 0.0 0.0 0.00 0.00 0.00 88 1017.6
20260510114528 37 131 0.0 0.9 0.00 0.00 0.00 90 1017.7
20260510113025 37 154 0.0 0.0 0.00 0.00 0.00 89 1017.5
20260510111525 37 127 0.0 0.9 0.00 0.00 0.00 88 1017.8
20260510110022 39 224 0.0 0.0 0.00 0.00 0.00 85 1017.8
20260510104520 38 226 0.0 0.9 0.00 0.00 0.00 87 1017.8
20260510103020 38 105 0.0 0.9 0.00 0.00 0.00 87 1017.8
20260510101518 38 147 0.0 1.7 0.00 0.00 0.00 87 1017.7
20260510100015 40 147 0.0 1.7 0.00 0.00 0.00 82 1017.8
20260510094531 40 90 0.0 0.9 0.00 0.00 0.00 85 1017.9
20260510093011 41 134 0.0 0.9 0.00 0.00 0.00 84 1017.8
20260510091510 41 213 0.0 0.9 0.00 0.00 0.00 84 1017.8
20260510090008 41 148 0.0 0.0 0.00 0.00 0.00 83 1017.9
20260510084514 42 261 0.0 1.7 0.00 0.00 0.00 83 1017.8
20260510083004 42 138 0.0 0.9 0.00 0.00 0.00 81 1017.7
20260510081505 42 148 0.0 0.0 0.00 0.00 0.00 81 1017.7
20260510080002 42 165 0.0 0.0 0.00 0.00 0.00 82 1017.7
20260510074559 42 134 0.0 0.9 0.00 0.00 0.00 81 1017.7
20260510073059 43 137 0.0 0.0 0.00 0.00 0.00 80 1017.7
20260510071559 43 123 0.0 0.9 0.00 0.00 0.00 80 1017.7
20260510070052 44 200 0.0 0.9 0.00 0.00 0.00 76 1017.5
20260510064559 44 198 0.0 0.9 0.00 0.00 0.00 77 1017.6
20260510063047 45 160 0.0 0.9 0.00 0.00 0.00 74 1017.6
20260510061544 47 148 0.0 0.9 0.00 0.00 0.00 71 1017.6
20260510060044 48 62 0.9 2.6 0.00 0.00 0.00 68 1017.6
20260510054541 46 149 0.0 1.7 0.00 0.00 0.00 73 1017.6
20260510053041 49 166 0.0 1.7 0.00 0.00 0.00 70 1017.4
20260510051540 52 146 0.9 3.5 0.00 0.00 0.00 62 1017.4
20260510050039 54 120 1.7 6.1 0.00 0.00 0.00 56 1017.4
20260510044541 54 96 0.0 2.6 0.00 0.00 0.00 54 1017.5
20260510043038 53 108 1.7 4.3 0.00 0.00 0.00 55 1017.4
20260510041541 55 178 1.7 5.2 0.00 0.00 0.00 53 1017.3
20260510040036 56 91 1.7 5.2 0.00 0.00 0.00 51 1017.0
20260510034535 58 86 3.5 7.8 0.00 0.00 0.00 50 1016.9
20260510033034 59 97 2.6 5.2 0.00 0.00 0.00 47 1016.7
20260510031534 61 94 1.7 4.3 0.00 0.00 0.00 47 1016.7
20260510030044 60 75 0.9 2.6 0.00 0.00 0.00 52 1016.5
20260510024532 63 226 0.0 0.9 0.00 0.00 0.00 47 1016.4
20260510023032 67 276 0.0 0.9 0.00 0.00 0.00 33 1016.1
20260510021532 69 311 0.0 2.6 0.00 0.00 0.00 32 1016.2
20260510020031 71 289 0.0 2.6 0.00 0.00 0.00 31 1016.2
20260510014532 71 316 1.7 5.2 0.00 0.00 0.00 29 1016.0
20260510013031 72 241 0.0 3.5 0.00 0.00 0.00 30 1016.1
20260510011528 72 261 0.9 4.3 0.00 0.00 0.00 29 1016.1
20260510010026 73 240 0.9 6.1 0.00 0.00 0.00 28 1016.1
20260510004525 74 224 1.7 4.3 0.00 0.00 0.00 27 1016.0
20260510003035 74 282 0.0 3.5 0.00 0.00 0.00 27 1016.0
20260510001524 74 241 0.9 5.2 0.00 0.00 0.00 27 1016.0
20260510000023 74 251 1.7 4.3 0.00 0.00 0.00 27 1015.8